Terug naar catalogus

STARLINK-37252

ActiefCommunicatieSSO
NORAD 68622·PAYLOAD·🇺🇸 United States

Gelanceerd Apr 5, 2026 vanaf Vandenberg Space Force Base

Loading…

Volgende Passages (komende 24 uur)

TLE

VersSource: CelesTrak SupGP

Epoch: Sep 15, 2026, 03:27 UTC

1 68622C 26073W   26258.14423611 -.00052962  00000+0 -16439-2 0  2585
2 68622  97.2850  96.2060 0001820  91.4803  60.3442 15.33468563    10

Volg STARLINK-37252 in realtime met AllMySat

Download on the App Store